Terminal Aerodrome Forecast
Issued by NWS Wilmington, OH

Current Version | Previous Version | Graphics & Text | Print | Product List | Glossary On
Versions: 1 2 3 4 5 6 7 8 9 10 11 12 13 14 15 16 17 18 19 20 21 22 23 24 25
000
FTUS41 KILN 291100
TAFDAY
TAF
KDAY 291135Z 2912/3012 33003KT P6SM FEW060 SCT250
     FM291400 32009KT P6SM FEW050
     FM300000 VRB03KT P6SM SKC
     FM301000 30007KT P6SM VCSH BKN035=

USA.gov is the U.S. government's official web portal to all federal, state and local government web resources and services.